date,time,SUV Intensity [MED/Hr],UV Index,Daily total [MED],Since Last [MED]
10/07/2023,23:58:48,-0.001,0.0,9.143,9.143
10/07/2023,23:59:48,-0.001,0.0,9.143,0.0
11/07/2023,00:00:48,0.000,0.0,0.0,-9.143
11/07/2023,00:01:48,0.000,0.0,0.0,0.0
11/07/2023,00:02:47,0.000,0.0,0.0,0.0
11/07/2023,00:03:48,0.000,0.0,0.0,0.0
11/07/2023,00:04:48,0.000,0.0,0.0,0.0
11/07/2023,00:05:48,0.000,0.0,0.0,0.0
11/07/2023,00:06:48,0.000,0.0,0.0,0.0
11/07/2023,00:07:48,0.000,0.0,0.0,0.0
11/07/2023,00:08:47,0.000,0.0,0.0,0.0
11/07/2023,00:09:49,-0.001,0.0,0.0,0.0
11/07/2023,00:10:48,0.000,0.0,0.0,0.0
11/07/2023,00:11:48,0.000,0.0,0.0,0.0
11/07/2023,00:12:47,0.000,0.0,0.0,0.0
11/07/2023,00:13:48,0.000,0.0,0.0,0.0
11/07/2023,00:14:48,0.000,0.0,0.0,0.0
11/07/2023,00:15:48,0.000,0.0,0.0,0.0
11/07/2023,00:16:48,0.000,0.0,0.0,0.0
11/07/2023,00:17:48,0.000,0.0,0.0,0.0
11/07/2023,00:18:47,-0.001,0.0,0.0,0.0
11/07/2023,00:19:48,0.000,0.0,0.0,0.0
11/07/2023,00:20:47,0.000,0.0,0.0,0.0
11/07/2023,00:21:48,0.000,0.0,0.0,0.0
11/07/2023,00:22:48,0.000,0.0,0.0,0.0
11/07/2023,00:23:47,0.000,0.0,0.0,0.0
11/07/2023,00:24:48,0.000,0.0,0.0,0.0
11/07/2023,00:25:47,-0.001,0.0,0.0,0.0
11/07/2023,00:26:48,0.000,0.0,0.0,0.0
11/07/2023,00:27:48,-0.000,0.0,0.0,0.0
11/07/2023,00:28:48,0.000,0.0,0.0,0.0
11/07/2023,00:29:48,0.000,0.0,0.0,0.0
11/07/2023,00:30:48,0.000,0.0,0.0,0.0
11/07/2023,00:31:48,0.000,0.0,0.0,0.0
11/07/2023,00:32:47,0.000,0.0,0.0,0.0
11/07/2023,00:33:48,-0.001,0.0,0.0,0.0
11/07/2023,00:34:48,0.000,0.0,0.0,0.0
11/07/2023,00:35:47,0.000,0.0,0.0,0.0
11/07/2023,00:36:48,-0.000,0.0,0.0,0.0
11/07/2023,00:37:47,0.000,0.0,0.0,0.0
11/07/2023,00:38:48,0.000,0.0,0.0,0.0
11/07/2023,00:39:48,-0.001,0.0,0.0,0.0
11/07/2023,00:40:48,0.000,0.0,0.0,0.0
11/07/2023,00:41:47,-0.001,0.0,0.0,0.0
11/07/2023,00:42:48,0.000,0.0,0.0,0.0
11/07/2023,00:43:47,-0.000,0.0,0.0,0.0
11/07/2023,00:44:47,0.000,0.0,0.0,0.0
11/07/2023,00:45:48,0.000,0.0,0.0,0.0
11/07/2023,00:46:48,0.000,0.0,0.0,0.0
11/07/2023,00:47:48,0.000,0.0,0.0,0.0
11/07/2023,00:48:48,-0.001,0.0,0.0,0.0
11/07/2023,00:49:47,-0.001,0.0,0.0,0.0
11/07/2023,00:50:48,0.000,0.0,0.0,0.0
11/07/2023,00:51:48,0.000,0.0,0.0,0.0
11/07/2023,00:52:48,0.000,0.0,0.0,0.0
11/07/2023,00:53:48,0.000,0.0,0.0,0.0
11/07/2023,00:54:48,0.000,0.0,0.0,0.0
11/07/2023,00:55:48,0.000,0.0,0.0,0.0
11/07/2023,00:56:48,0.000,0.0,0.0,0.0
11/07/2023,00:57:48,0.000,0.0,0.0,0.0
11/07/2023,00:58:48,0.000,0.0,0.0,0.0
11/07/2023,00:59:48,0.000,0.0,0.0,0.0
11/07/2023,01:00:47,0.000,0.0,0.0,0.0
11/07/2023,01:01:48,-0.000,0.0,0.0,0.0
11/07/2023,01:02:48,0.000,0.0,0.0,0.0
11/07/2023,01:03:48,0.000,0.0,0.0,0.0
11/07/2023,01:04:48,0.000,0.0,0.0,0.0
11/07/2023,01:05:48,0.000,0.0,0.0,0.0
11/07/2023,01:06:48,0.000,0.0,0.0,0.0
11/07/2023,01:07:48,0.000,0.0,0.0,0.0
11/07/2023,01:08:48,0.000,0.0,0.0,0.0
11/07/2023,01:09:48,0.000,0.0,0.0,0.0
11/07/2023,01:10:48,0.000,0.0,0.0,0.0
11/07/2023,01:11:48,0.000,0.0,0.0,0.0
11/07/2023,01:12:47,0.000,0.0,0.0,0.0
11/07/2023,01:13:48,0.000,0.0,0.0,0.0
11/07/2023,01:14:48,0.000,0.0,0.0,0.0
11/07/2023,01:15:48,0.000,0.0,0.0,0.0
11/07/2023,01:16:48,0.000,0.0,0.0,0.0
11/07/2023,01:17:48,-0.001,0.0,0.0,0.0
11/07/2023,01:18:48,0.000,0.0,0.0,0.0
11/07/2023,01:19:48,0.000,0.0,0.0,0.0
11/07/2023,01:20:48,0.000,0.0,0.0,0.0
11/07/2023,01:21:48,0.000,0.0,0.0,0.0
11/07/2023,01:22:48,0.000,0.0,0.0,0.0
11/07/2023,01:23:48,0.000,0.0,0.0,0.0
11/07/2023,01:24:47,0.000,0.0,0.0,0.0
11/07/2023,01:25:48,0.000,0.0,0.0,0.0
11/07/2023,01:26:48,0.000,0.0,0.0,0.0
11/07/2023,01:27:48,-0.001,0.0,0.0,0.0
11/07/2023,01:28:48,0.000,0.0,0.0,0.0
11/07/2023,01:29:47,-0.001,0.0,0.0,0.0
11/07/2023,01:30:48,0.000,0.0,0.0,0.0
11/07/2023,01:31:47,0.000,0.0,0.0,0.0
11/07/2023,01:32:48,0.000,0.0,0.0,0.0
11/07/2023,01:33:48,0.000,0.0,0.0,0.0
11/07/2023,01:34:48,0.000,0.0,0.0,0.0
11/07/2023,01:35:48,0.000,0.0,0.0,0.0
11/07/2023,01:36:48,0.000,0.0,0.0,0.0
11/07/2023,01:37:47,0.000,0.0,0.0,0.0
11/07/2023,01:38:48,0.000,0.0,0.0,0.0
11/07/2023,01:39:47,0.000,0.0,0.0,0.0
11/07/2023,01:40:48,0.000,0.0,0.0,0.0
11/07/2023,01:41:48,-0.001,0.0,0.0,0.0
11/07/2023,01:42:48,0.000,0.0,0.0,0.0
11/07/2023,01:43:48,0.000,0.0,0.0,0.0
11/07/2023,01:44:48,0.000,0.0,0.0,0.0
11/07/2023,01:45:48,0.000,0.0,0.0,0.0
11/07/2023,01:46:48,0.000,0.0,0.0,0.0
11/07/2023,01:47:48,0.000,0.0,0.0,0.0
11/07/2023,01:48:48,0.000,0.0,0.0,0.0
11/07/2023,01:49:48,0.000,0.0,0.0,0.0
11/07/2023,01:50:48,0.000,0.0,0.0,0.0
11/07/2023,01:51:47,0.000,0.0,0.0,0.0
11/07/2023,01:53:10,0.000,0.0,0.0,0.0
11/07/2023,01:54:49,0.000,0.0,0.0,0.0
11/07/2023,01:55:48,0.000,0.0,0.0,0.0
11/07/2023,01:56:47,0.000,0.0,0.0,0.0
11/07/2023,01:57:48,0.000,0.0,0.0,0.0
11/07/2023,01:58:48,0.000,0.0,0.0,0.0
11/07/2023,01:59:48,0.000,0.0,0.0,0.0
11/07/2023,02:00:48,0.000,0.0,0.0,0.0
11/07/2023,02:01:47,0.000,0.0,0.0,0.0
11/07/2023,02:02:48,0.000,0.0,0.0,0.0
11/07/2023,02:03:48,0.000,0.0,0.0,0.0
11/07/2023,02:04:48,0.000,0.0,0.0,0.0
11/07/2023,02:05:48,0.000,0.0,0.0,0.0
11/07/2023,02:06:48,0.000,0.0,0.0,0.0
11/07/2023,02:07:48,0.000,0.0,0.0,0.0
11/07/2023,02:08:47,0.000,0.0,0.0,0.0
11/07/2023,02:09:48,0.000,0.0,0.0,0.0
11/07/2023,02:10:48,0.000,0.0,0.0,0.0
11/07/2023,02:11:48,0.000,0.0,0.0,0.0
11/07/2023,02:12:47,0.000,0.0,0.0,0.0
11/07/2023,02:13:48,-0.001,0.0,0.0,0.0
11/07/2023,02:14:48,0.000,0.0,0.0,0.0
11/07/2023,02:15:48,-0.000,0.0,0.0,0.0
11/07/2023,02:16:48,-0.000,0.0,0.0,0.0
11/07/2023,02:17:48,0.000,0.0,0.0,0.0
11/07/2023,02:18:48,-0.000,0.0,0.0,0.0
11/07/2023,02:19:48,0.000,0.0,0.0,0.0
11/07/2023,02:20:48,0.000,0.0,0.0,0.0
11/07/2023,02:21:48,0.000,0.0,0.0,0.0
11/07/2023,02:22:48,-0.000,0.0,0.0,0.0
11/07/2023,02:23:48,-0.000,0.0,0.0,0.0
11/07/2023,02:24:48,0.000,0.0,0.0,0.0
11/07/2023,02:25:48,0.000,0.0,0.0,0.0
11/07/2023,02:26:48,0.000,0.0,0.0,0.0
11/07/2023,02:27:48,0.000,0.0,0.0,0.0
11/07/2023,02:28:49,0.000,0.0,0.0,0.0
11/07/2023,02:29:48,0.000,0.0,0.0,0.0
11/07/2023,02:30:48,0.000,0.0,0.0,0.0
11/07/2023,02:31:48,0.000,0.0,0.0,0.0
11/07/2023,02:32:48,0.000,0.0,0.0,0.0
11/07/2023,02:33:48,0.000,0.0,0.0,0.0
11/07/2023,02:34:48,0.000,0.0,0.0,0.0
11/07/2023,02:35:48,0.000,0.0,0.0,0.0
11/07/2023,02:36:48,-0.000,0.0,0.0,0.0
11/07/2023,02:37:48,0.000,0.0,0.0,0.0
11/07/2023,02:38:48,0.000,0.0,0.0,0.0
11/07/2023,02:39:48,0.000,0.0,0.0,0.0
11/07/2023,02:40:48,0.000,0.0,0.0,0.0
11/07/2023,02:41:48,0.000,0.0,0.0,0.0
11/07/2023,02:42:48,0.000,0.0,0.0,0.0
11/07/2023,02:43:48,-0.001,0.0,0.0,0.0
11/07/2023,02:44:48,0.000,0.0,0.0,0.0
11/07/2023,02:45:48,0.000,0.0,0.0,0.0
11/07/2023,02:46:48,0.000,0.0,0.0,0.0
11/07/2023,02:47:48,0.000,0.0,0.0,0.0
11/07/2023,02:48:48,0.000,0.0,0.0,0.0
11/07/2023,02:49:48,0.000,0.0,0.0,0.0
11/07/2023,02:50:48,0.000,0.0,0.0,0.0
11/07/2023,02:51:48,0.000,0.0,0.0,0.0
11/07/2023,02:52:48,0.000,0.0,0.0,0.0
11/07/2023,02:53:48,0.000,0.0,0.0,0.0
11/07/2023,02:54:48,-0.001,0.0,0.0,0.0
11/07/2023,02:55:48,0.000,0.0,0.0,0.0
11/07/2023,02:56:48,0.000,0.0,0.0,0.0
11/07/2023,02:57:48,0.000,0.0,0.0,0.0
11/07/2023,02:58:48,0.000,0.0,0.0,0.0
11/07/2023,02:59:48,0.000,0.0,0.0,0.0
11/07/2023,03:00:49,0.000,0.0,0.0,0.0
11/07/2023,03:01:48,0.000,0.0,0.0,0.0
11/07/2023,03:02:49,0.000,0.0,0.0,0.0
11/07/2023,03:03:48,0.000,0.0,0.0,0.0
11/07/2023,03:04:49,0.000,0.0,0.0,0.0
11/07/2023,03:05:48,0.000,0.0,0.0,0.0
11/07/2023,03:06:48,0.000,0.0,0.0,0.0
11/07/2023,03:07:49,0.000,0.0,0.0,0.0
11/07/2023,03:08:48,0.000,0.0,0.0,0.0
11/07/2023,03:09:48,0.000,0.0,0.0,0.0
11/07/2023,03:10:48,0.000,0.0,0.0,0.0
11/07/2023,03:11:48,0.000,0.0,0.0,0.0
11/07/2023,03:12:48,0.000,0.0,0.0,0.0
11/07/2023,03:13:48,0.000,0.0,0.0,0.0
11/07/2023,03:14:48,0.000,0.0,0.0,0.0
11/07/2023,03:15:48,0.000,0.0,0.0,0.0
11/07/2023,03:16:48,0.000,0.0,0.0,0.0
11/07/2023,03:17:48,0.000,0.0,0.0,0.0
11/07/2023,03:18:48,0.000,0.0,0.0,0.0
11/07/2023,03:19:49,0.000,0.0,0.0,0.0
11/07/2023,03:20:48,0.000,0.0,0.0,0.0
11/07/2023,03:21:48,0.000,0.0,0.0,0.0
11/07/2023,03:22:48,0.000,0.0,0.0,0.0
11/07/2023,03:23:48,0.000,0.0,0.0,0.0
11/07/2023,03:24:48,0.000,0.0,0.0,0.0
11/07/2023,03:25:48,0.000,0.0,0.0,0.0
11/07/2023,03:26:48,0.000,0.0,0.0,0.0
11/07/2023,03:27:48,0.000,0.0,0.0,0.0
11/07/2023,03:28:48,0.000,0.0,0.0,0.0
11/07/2023,03:29:48,0.000,0.0,0.0,0.0
11/07/2023,03:31:17,0.000,0.0,0.0,0.0
11/07/2023,03:32:48,0.000,0.0,0.0,0.0
11/07/2023,03:33:49,0.001,0.0,0.0,0.0
11/07/2023,03:34:48,0.000,0.0,0.0,0.0
11/07/2023,03:35:48,0.001,0.0,0.0,0.0
11/07/2023,03:36:48,0.001,0.0,0.0,0.0
11/07/2023,03:37:48,0.001,0.0,0.0,0.0
11/07/2023,03:38:48,0.001,0.0,0.0,0.0
11/07/2023,03:39:49,0.001,0.0,0.0,0.0
11/07/2023,03:40:48,0.001,0.0,0.0,0.0
11/07/2023,03:41:49,0.000,0.0,0.0,0.0
11/07/2023,03:42:48,0.002,0.0,0.0,0.0
11/07/2023,03:43:48,0.001,0.0,0.0,0.0
11/07/2023,03:44:47,0.001,0.0,0.0,0.0
11/07/2023,03:45:48,0.001,0.0,0.0,0.0
11/07/2023,03:46:48,0.001,0.0,0.0,0.0
11/07/2023,03:47:48,0.001,0.0,0.0,0.0
11/07/2023,03:48:48,0.000,0.0,0.0,0.0
11/07/2023,03:49:48,0.001,0.0,0.0,0.0
11/07/2023,03:50:48,0.001,0.0,0.0,0.0
11/07/2023,03:51:48,0.001,0.0,0.0,0.0
11/07/2023,03:52:48,0.002,0.0,0.0,0.0
11/07/2023,03:53:48,0.001,0.0,0.0,0.0
11/07/2023,03:54:49,0.002,0.0,0.0,0.0
11/07/2023,03:55:48,0.002,0.0,0.0,0.0
11/07/2023,03:56:48,0.002,0.0,0.0,0.0
11/07/2023,03:57:48,0.002,0.0,0.0,0.0
11/07/2023,03:58:48,0.002,0.0,0.0,0.0
11/07/2023,03:59:48,0.002,0.0,0.0,0.0
11/07/2023,04:00:48,0.002,0.0,0.0,0.0
11/07/2023,04:01:48,0.001,0.0,0.0,0.0
11/07/2023,04:02:48,0.002,0.0,0.0,0.0
11/07/2023,04:03:48,0.002,0.0,0.0,0.0
11/07/2023,04:04:48,0.003,0.0,0.0,0.0
11/07/2023,04:05:48,0.002,0.0,0.0,0.0
11/07/2023,04:06:48,0.002,0.0,0.0,0.0
11/07/2023,04:07:48,0.002,0.0,0.0,0.0
11/07/2023,04:08:48,0.001,0.0,0.0,0.0
11/07/2023,04:09:48,0.002,0.0,0.0,0.0
11/07/2023,04:10:48,0.002,0.0,0.0,0.0
11/07/2023,04:11:49,0.003,0.0,0.0,0.0
11/07/2023,04:12:48,0.003,0.0,0.0,0.0
11/07/2023,04:13:48,0.004,0.0,0.0,0.0
11/07/2023,04:14:48,0.004,0.0,0.0,0.0
11/07/2023,04:15:48,0.004,0.0,0.0,0.0
11/07/2023,04:16:48,0.004,0.0,0.0,0.0
11/07/2023,04:17:48,0.005,0.0,0.0,0.0
11/07/2023,04:18:49,0.005,0.0,0.0,0.0
11/07/2023,04:19:48,0.005,0.0,0.0,0.0
11/07/2023,04:20:48,0.006,0.0,0.0,0.0
11/07/2023,04:21:49,0.006,0.0,0.0,0.0
11/07/2023,04:22:48,0.006,0.0,0.0,0.0
11/07/2023,04:23:49,0.007,0.0,0.0,0.0
11/07/2023,04:24:49,0.006,0.0,0.0,0.0
11/07/2023,04:25:48,0.007,0.0,0.0,0.0
11/07/2023,04:26:48,0.007,0.0,0.0,0.0
11/07/2023,04:27:48,0.007,0.0,0.001,0.001
11/07/2023,04:28:48,0.007,0.0,0.001,0.0
11/07/2023,04:29:48,0.008,0.0,0.001,0.0
11/07/2023,04:30:48,0.008,0.0,0.001,0.0
11/07/2023,04:31:48,0.007,0.0,0.001,0.0
11/07/2023,04:32:48,0.009,0.0,0.001,0.0
11/07/2023,04:33:48,0.009,0.0,0.001,0.0
11/07/2023,04:34:48,0.009,0.0,0.001,0.0
11/07/2023,04:35:48,0.010,0.0,0.002,0.001
11/07/2023,04:36:48,0.010,0.0,0.002,0.0
11/07/2023,04:37:48,0.010,0.0,0.002,0.0
11/07/2023,04:38:49,0.010,0.0,0.002,0.0
11/07/2023,04:39:48,0.011,0.0,0.002,0.0
11/07/2023,04:40:49,0.010,0.0,0.002,0.0
11/07/2023,04:41:48,0.010,0.0,0.003,0.001
11/07/2023,04:42:48,0.011,0.0,0.003,0.0
11/07/2023,04:43:48,0.012,0.0,0.003,0.0
11/07/2023,04:44:48,0.012,0.0,0.003,0.0
11/07/2023,04:45:48,0.012,0.0,0.003,0.0
11/07/2023,04:46:48,0.013,0.0,0.004,0.001
11/07/2023,04:47:49,0.013,0.0,0.004,0.0
11/07/2023,04:48:48,0.014,0.0,0.004,0.0
11/07/2023,04:49:48,0.015,0.0,0.004,0.0
11/07/2023,04:50:49,0.014,0.0,0.005,0.001
11/07/2023,04:51:48,0.014,0.0,0.005,0.0
11/07/2023,04:52:48,0.014,0.0,0.005,0.0
11/07/2023,04:53:48,0.015,0.0,0.005,0.0
11/07/2023,04:54:48,0.014,0.0,0.005,0.0
11/07/2023,04:55:48,0.015,0.0,0.006,0.001
11/07/2023,04:56:48,0.015,0.0,0.006,0.0
11/07/2023,04:57:49,0.013,0.0,0.006,0.0
11/07/2023,04:58:48,0.014,0.0,0.006,0.0
11/07/2023,04:59:48,0.013,0.0,0.007,0.001
11/07/2023,05:00:48,0.013,0.0,0.007,0.0
11/07/2023,05:01:48,0.013,0.0,0.007,0.0
11/07/2023,05:02:48,0.013,0.0,0.007,0.0
11/07/2023,05:03:49,0.013,0.0,0.007,0.0
11/07/2023,05:04:48,0.013,0.0,0.008,0.001
11/07/2023,05:05:49,0.014,0.0,0.008,0.0
11/07/2023,05:06:51,0.017,0.0,0.008,0.0
11/07/2023,05:07:49,0.018,0.0,0.009,0.001
11/07/2023,05:08:48,0.022,0.0,0.009,0.0
11/07/2023,05:09:48,0.023,0.0,0.009,0.0
11/07/2023,05:10:48,0.025,0.0,0.01,0.001
11/07/2023,05:11:48,0.028,0.0,0.01,0.0
11/07/2023,05:12:49,0.028,0.0,0.011,0.001
11/07/2023,05:13:48,0.029,0.0,0.011,0.0
11/07/2023,05:14:48,0.028,0.0,0.011,0.0
11/07/2023,05:15:49,0.029,0.0,0.012,0.001
11/07/2023,05:16:48,0.028,0.0,0.012,0.0
11/07/2023,05:17:48,0.028,0.0,0.013,0.001
11/07/2023,05:18:48,0.029,0.0,0.013,0.0
11/07/2023,05:19:48,0.029,0.0,0.014,0.001
11/07/2023,05:20:49,0.030,0.0,0.014,0.0
11/07/2023,05:21:48,0.030,0.0,0.015,0.001
11/07/2023,05:22:48,0.032,0.0,0.015,0.0
11/07/2023,05:23:48,0.031,0.0,0.016,0.001
11/07/2023,05:24:49,0.031,0.0,0.016,0.0
11/07/2023,05:25:48,0.032,0.0,0.017,0.001
11/07/2023,05:26:49,0.032,0.0,0.017,0.0
11/07/2023,05:27:48,0.033,0.0,0.018,0.001
11/07/2023,05:28:48,0.036,0.0,0.019,0.001
11/07/2023,05:29:48,0.037,0.0,0.019,0.0
11/07/2023,05:30:49,0.040,0.0,0.02,0.001
11/07/2023,05:31:48,0.043,0.0,0.021,0.001
11/07/2023,05:32:49,0.044,0.0,0.021,0.0
11/07/2023,05:33:48,0.046,0.0,0.022,0.001
11/07/2023,05:34:48,0.047,0.0,0.023,0.001
11/07/2023,05:35:49,0.050,0.0,0.024,0.001
11/07/2023,05:36:48,0.051,0.0,0.024,0.0
11/07/2023,05:37:49,0.051,0.0,0.025,0.001
11/07/2023,05:38:48,0.050,0.0,0.026,0.001
11/07/2023,05:39:49,0.050,0.0,0.027,0.001
11/07/2023,05:40:48,0.048,0.0,0.028,0.001
11/07/2023,05:41:48,0.048,0.0,0.029,0.001
11/07/2023,05:42:49,0.049,0.0,0.029,0.0
11/07/2023,05:43:48,0.050,0.0,0.03,0.001
11/07/2023,05:44:48,0.052,0.0,0.031,0.001
11/07/2023,05:45:48,0.054,0.0,0.032,0.001
11/07/2023,05:46:48,0.057,0.0,0.033,0.001
11/07/2023,05:47:49,0.060,0.0,0.034,0.001
11/07/2023,05:48:48,0.061,0.0,0.035,0.001
11/07/2023,05:49:49,0.064,0.0,0.036,0.001
11/07/2023,05:50:48,0.065,0.0,0.037,0.001
11/07/2023,05:51:49,0.068,0.0,0.038,0.001
11/07/2023,05:52:49,0.069,0.0,0.039,0.001
11/07/2023,05:53:49,0.069,0.0,0.04,0.001
11/07/2023,05:54:48,0.072,0.0,0.042,0.002
11/07/2023,05:55:48,0.074,0.0,0.043,0.001
11/07/2023,05:56:48,0.076,0.0,0.044,0.001
11/07/2023,05:57:48,0.076,0.0,0.045,0.001
11/07/2023,05:58:48,0.076,0.0,0.047,0.002
11/07/2023,05:59:49,0.073,0.0,0.048,0.001
11/07/2023,06:00:48,0.072,0.0,0.049,0.001
11/07/2023,06:01:49,0.070,0.0,0.05,0.001
11/07/2023,06:02:48,0.069,0.0,0.051,0.001
11/07/2023,06:03:48,0.068,0.0,0.052,0.001
11/07/2023,06:04:49,0.068,0.0,0.054,0.002
11/07/2023,06:05:48,0.067,0.0,0.055,0.001
11/07/2023,06:06:49,0.065,0.0,0.056,0.001
11/07/2023,06:07:48,0.061,0.0,0.057,0.001
11/07/2023,06:08:49,0.061,0.0,0.058,0.001
11/07/2023,06:09:48,0.059,0.0,0.059,0.001
11/07/2023,06:10:49,0.060,0.0,0.06,0.001
11/07/2023,06:11:48,0.059,0.0,0.061,0.001
11/07/2023,06:12:48,0.059,0.0,0.062,0.001
11/07/2023,06:13:48,0.059,0.0,0.063,0.001
11/07/2023,06:14:48,0.059,0.0,0.064,0.001
11/07/2023,06:15:49,0.060,0.0,0.065,0.001
11/07/2023,06:16:48,0.060,0.0,0.066,0.001
11/07/2023,06:17:49,0.063,0.0,0.067,0.001
11/07/2023,06:18:48,0.065,0.0,0.068,0.001
11/07/2023,06:19:48,0.067,0.0,0.069,0.001
11/07/2023,06:20:48,0.069,0.0,0.07,0.001
11/07/2023,06:21:49,0.074,0.0,0.071,0.001
11/07/2023,06:22:48,0.082,0.0,0.073,0.002
11/07/2023,06:23:49,0.089,0.0,0.074,0.001
11/07/2023,06:24:48,0.096,0.0,0.076,0.002
11/07/2023,06:25:48,0.100,0.0,0.077,0.001
11/07/2023,06:26:48,0.103,0.0,0.079,0.002
11/07/2023,06:27:49,0.106,0.0,0.081,0.002
11/07/2023,06:28:48,0.108,0.0,0.082,0.001
11/07/2023,06:29:49,0.110,0.0,0.084,0.002
11/07/2023,06:30:48,0.112,0.0,0.086,0.002
11/07/2023,06:31:48,0.115,0.0,0.088,0.002
11/07/2023,06:32:49,0.119,0.0,0.09,0.002
11/07/2023,06:33:48,0.123,0.0,0.092,0.002
11/07/2023,06:34:49,0.130,0.0,0.094,0.002
11/07/2023,06:35:48,0.137,0.0,0.096,0.002
11/07/2023,06:36:49,0.144,0.0,0.099,0.003
11/07/2023,06:37:48,0.157,0.0,0.101,0.002
11/07/2023,06:38:48,0.171,0.0,0.104,0.003
11/07/2023,06:39:49,0.182,0.0,0.107,0.003
11/07/2023,06:40:48,0.189,0.0,0.11,0.003
11/07/2023,06:41:48,0.188,0.0,0.113,0.003
11/07/2023,06:42:49,0.187,0.0,0.116,0.003
11/07/2023,06:43:48,0.189,0.0,0.119,0.003
11/07/2023,06:44:49,0.189,0.0,0.122,0.003
11/07/2023,06:45:49,0.198,0.0,0.126,0.004
11/07/2023,06:46:48,0.209,0.0,0.129,0.003
11/07/2023,06:47:49,0.221,1.0,0.133,0.004
11/07/2023,06:48:49,0.229,1.0,0.136,0.003
11/07/2023,06:49:48,0.232,1.0,0.14,0.004
11/07/2023,06:50:48,0.239,1.0,0.144,0.004
11/07/2023,06:51:49,0.246,1.0,0.148,0.004
11/07/2023,06:52:48,0.245,1.0,0.152,0.004
11/07/2023,06:53:49,0.244,1.0,0.156,0.004
11/07/2023,06:54:49,0.238,1.0,0.16,0.004
11/07/2023,06:55:48,0.233,1.0,0.164,0.004
11/07/2023,06:56:48,0.232,1.0,0.168,0.004
11/07/2023,06:57:49,0.236,1.0,0.172,0.004
11/07/2023,06:58:48,0.242,1.0,0.176,0.004
11/07/2023,06:59:48,0.244,1.0,0.18,0.004
11/07/2023,07:00:48,0.238,1.0,0.184,0.004
11/07/2023,07:01:49,0.228,1.0,0.188,0.004
11/07/2023,07:02:48,0.232,1.0,0.192,0.004
11/07/2023,07:03:49,0.236,1.0,0.196,0.004
11/07/2023,07:04:48,0.226,1.0,0.2,0.004
11/07/2023,07:05:48,0.230,1.0,0.204,0.004
11/07/2023,07:06:49,0.239,1.0,0.207,0.003
11/07/2023,07:07:48,0.251,1.0,0.212,0.005
11/07/2023,07:08:49,0.263,1.0,0.216,0.004
11/07/2023,07:09:48,0.269,1.0,0.22,0.004
11/07/2023,07:10:49,0.260,1.0,0.225,0.005
11/07/2023,07:11:48,0.245,1.0,0.229,0.004
11/07/2023,07:12:49,0.237,1.0,0.233,0.004
11/07/2023,07:13:48,0.248,1.0,0.237,0.004
11/07/2023,07:14:48,0.266,1.0,0.241,0.004
11/07/2023,07:15:48,0.283,1.0,0.246,0.005
11/07/2023,07:16:48,0.295,1.0,0.251,0.005
11/07/2023,07:17:48,0.301,1.0,0.256,0.005
11/07/2023,07:18:49,0.301,1.0,0.261,0.005
11/07/2023,07:19:48,0.293,1.0,0.266,0.005
11/07/2023,07:20:49,0.291,1.0,0.271,0.005
11/07/2023,07:21:48,0.285,1.0,0.275,0.004
11/07/2023,07:22:48,0.290,1.0,0.28,0.005
11/07/2023,07:23:48,0.296,1.0,0.285,0.005
11/07/2023,07:24:49,0.305,1.0,0.29,0.005
11/07/2023,07:25:49,0.309,1.0,0.295,0.005
11/07/2023,07:26:48,0.308,1.0,0.3,0.005
11/07/2023,07:27:49,0.305,1.0,0.306,0.006
11/07/2023,07:28:48,0.300,1.0,0.311,0.005
11/07/2023,07:29:48,0.301,1.0,0.316,0.005
11/07/2023,07:30:50,0.289,1.0,0.321,0.005
11/07/2023,07:31:49,0.284,1.0,0.326,0.005
11/07/2023,07:32:48,0.288,1.0,0.33,0.004
11/07/2023,07:33:48,0.306,1.0,0.335,0.005
11/07/2023,07:34:49,0.301,1.0,0.34,0.005
11/07/2023,07:35:49,0.316,1.0,0.345,0.005
11/07/2023,07:36:48,0.327,1.0,0.351,0.006
11/07/2023,07:37:48,0.335,1.0,0.356,0.005
11/07/2023,07:38:48,0.339,1.0,0.362,0.006
11/07/2023,07:39:49,0.364,1.0,0.368,0.006
11/07/2023,07:40:48,0.369,1.0,0.374,0.006
11/07/2023,07:41:48,0.386,1.0,0.38,0.006
11/07/2023,07:42:48,0.427,1.0,0.387,0.007
11/07/2023,07:43:49,0.432,1.0,0.394,0.007
11/07/2023,07:44:48,0.446,1.0,0.401,0.007
11/07/2023,07:45:48,0.444,1.0,0.409,0.008
11/07/2023,07:46:48,0.449,1.0,0.416,0.007
11/07/2023,07:47:49,0.459,1.0,0.424,0.008
11/07/2023,07:48:48,0.476,1.0,0.431,0.007
11/07/2023,07:49:49,0.489,1.0,0.439,0.008
11/07/2023,07:50:48,0.502,1.0,0.448,0.009
11/07/2023,07:51:48,0.493,1.0,0.456,0.008
11/07/2023,07:52:49,0.494,1.0,0.465,0.009
11/07/2023,07:53:48,0.506,1.0,0.473,0.008
11/07/2023,07:54:48,0.522,1.0,0.481,0.008
11/07/2023,07:55:49,0.536,1.0,0.49,0.009
11/07/2023,07:56:48,0.511,1.0,0.499,0.009
11/07/2023,07:57:49,0.506,1.0,0.508,0.009
11/07/2023,07:58:48,0.506,1.0,0.516,0.008
11/07/2023,07:59:48,0.500,1.0,0.524,0.008
11/07/2023,08:00:49,0.476,1.0,0.533,0.009
11/07/2023,08:01:48,0.460,1.0,0.54,0.007
11/07/2023,08:02:50,0.458,1.0,0.548,0.008
11/07/2023,08:03:49,0.463,1.0,0.556,0.008
11/07/2023,08:04:48,0.472,1.0,0.563,0.007
11/07/2023,08:05:48,0.501,1.0,0.571,0.008
11/07/2023,08:06:48,0.554,1.0,0.58,0.009
11/07/2023,08:07:49,0.624,1.0,0.59,0.01
11/07/2023,08:08:47,0.694,2.0,0.601,0.011
11/07/2023,08:09:48,0.766,2.0,0.613,0.012
11/07/2023,08:10:48,0.692,2.0,0.626,0.013
11/07/2023,08:11:50,0.657,2.0,0.637,0.011
11/07/2023,08:12:49,0.682,2.0,0.649,0.012
11/07/2023,08:13:49,0.643,1.0,0.66,0.011
11/07/2023,08:14:49,0.551,1.0,0.669,0.009
11/07/2023,08:15:49,0.528,1.0,0.678,0.009
11/07/2023,08:16:48,0.527,1.0,0.687,0.009
11/07/2023,08:17:49,0.522,1.0,0.696,0.009
11/07/2023,08:18:48,0.515,1.0,0.704,0.008
11/07/2023,08:19:49,0.475,1.0,0.713,0.009
11/07/2023,08:20:49,0.438,1.0,0.72,0.007
11/07/2023,08:21:48,0.440,1.0,0.727,0.007
11/07/2023,08:22:49,0.479,1.0,0.735,0.008
11/07/2023,08:23:49,0.507,1.0,0.744,0.009
11/07/2023,08:24:48,0.498,1.0,0.752,0.008
11/07/2023,08:25:49,0.474,1.0,0.76,0.008
11/07/2023,08:26:48,0.509,1.0,0.768,0.008
11/07/2023,08:27:48,0.549,1.0,0.777,0.009
11/07/2023,08:28:49,0.547,1.0,0.786,0.009
11/07/2023,08:29:48,0.547,1.0,0.795,0.009
11/07/2023,08:30:49,0.543,1.0,0.804,0.009
11/07/2023,08:31:48,0.555,1.0,0.813,0.009
11/07/2023,08:32:49,0.560,1.0,0.822,0.009
11/07/2023,08:33:48,0.628,1.0,0.832,0.01
11/07/2023,08:34:49,0.646,1.0,0.843,0.011
11/07/2023,08:35:48,0.607,1.0,0.854,0.011
11/07/2023,08:36:48,0.632,1.0,0.864,0.01
11/07/2023,08:37:48,0.650,1.0,0.875,0.011
11/07/2023,08:38:49,0.639,1.0,0.885,0.01
11/07/2023,08:39:49,0.559,1.0,0.895,0.01
11/07/2023,08:40:48,0.528,1.0,0.904,0.009
11/07/2023,08:41:48,0.568,1.0,0.913,0.009
11/07/2023,08:42:49,0.605,1.0,0.923,0.01
11/07/2023,08:43:49,0.581,1.0,0.933,0.01
11/07/2023,08:44:48,0.597,1.0,0.943,0.01
11/07/2023,08:45:49,0.569,1.0,0.953,0.01
11/07/2023,08:46:48,0.595,1.0,0.962,0.009
11/07/2023,08:47:49,0.754,2.0,0.974,0.012
11/07/2023,08:48:49,0.770,2.0,0.986,0.012
11/07/2023,08:49:48,0.870,2.0,0.999,0.013
11/07/2023,08:50:48,0.921,2.0,1.014,0.015
11/07/2023,08:51:48,0.870,2.0,1.029,0.015
11/07/2023,08:52:48,0.805,2.0,1.042,0.013
11/07/2023,08:53:49,0.822,2.0,1.056,0.014
11/07/2023,08:54:49,0.833,2.0,1.07,0.014
11/07/2023,08:55:48,0.858,2.0,1.084,0.014
11/07/2023,08:56:49,0.880,2.0,1.098,0.014
11/07/2023,08:57:48,0.910,2.0,1.113,0.015
11/07/2023,08:58:49,0.952,2.0,1.129,0.016
11/07/2023,08:59:49,0.906,2.0,1.145,0.016
11/07/2023,09:00:49,0.839,2.0,1.159,0.014
11/07/2023,09:01:49,0.855,2.0,1.173,0.014
11/07/2023,09:02:49,0.840,2.0,1.187,0.014
11/07/2023,09:03:48,0.774,2.0,1.201,0.014
11/07/2023,09:04:48,0.796,2.0,1.214,0.013
11/07/2023,09:05:48,0.883,2.0,1.228,0.014
11/07/2023,09:06:49,0.917,2.0,1.243,0.015
11/07/2023,09:07:48,0.913,2.0,1.258,0.015
11/07/2023,09:08:48,0.797,2.0,1.272,0.014
11/07/2023,09:09:49,0.658,2.0,1.285,0.013
11/07/2023,09:10:48,0.573,1.0,1.295,0.01
11/07/2023,09:11:48,0.542,1.0,1.304,0.009
11/07/2023,09:12:48,0.569,1.0,1.313,0.009
11/07/2023,09:13:49,0.579,1.0,1.323,0.01
11/07/2023,09:14:48,0.615,1.0,1.332,0.009
11/07/2023,09:15:49,0.696,2.0,1.343,0.011
11/07/2023,09:16:48,0.753,2.0,1.356,0.013
11/07/2023,09:17:49,0.844,2.0,1.369,0.013
11/07/2023,09:18:48,0.922,2.0,1.384,0.015
11/07/2023,09:19:48,0.969,2.0,1.399,0.015
11/07/2023,09:20:48,1.017,2.0,1.416,0.017
11/07/2023,09:21:49,1.064,2.0,1.433,0.017
11/07/2023,09:22:49,1.092,3.0,1.451,0.018
11/07/2023,09:23:47,1.184,3.0,1.47,0.019
11/07/2023,09:24:48,1.050,2.0,1.488,0.018
11/07/2023,09:25:49,1.028,2.0,1.506,0.018
11/07/2023,09:26:48,1.066,2.0,1.523,0.017
11/07/2023,09:27:49,1.044,2.0,1.541,0.018
11/07/2023,09:28:49,1.020,2.0,1.558,0.017
11/07/2023,09:29:49,1.030,2.0,1.575,0.017
11/07/2023,09:30:49,1.049,2.0,1.592,0.017
11/07/2023,09:31:49,1.075,2.0,1.61,0.018
11/07/2023,09:32:49,1.126,3.0,1.628,0.018
11/07/2023,09:33:48,1.137,3.0,1.648,0.02
11/07/2023,09:34:49,1.096,3.0,1.666,0.018
11/07/2023,09:35:48,1.183,3.0,1.685,0.019
11/07/2023,09:36:49,1.106,3.0,1.703,0.018
11/07/2023,09:37:48,1.099,3.0,1.722,0.019
11/07/2023,09:38:49,0.971,2.0,1.739,0.017
11/07/2023,09:39:48,0.917,2.0,1.754,0.015
11/07/2023,09:40:49,0.919,2.0,1.769,0.015
11/07/2023,09:41:48,0.990,2.0,1.785,0.016
11/07/2023,09:42:49,1.064,2.0,1.803,0.018
11/07/2023,09:43:49,1.182,3.0,1.821,0.018
11/07/2023,09:44:48,1.329,3.0,1.842,0.021
11/07/2023,09:45:49,1.349,3.0,1.864,0.022
11/07/2023,09:46:49,1.493,3.0,1.888,0.024
11/07/2023,09:47:49,1.569,4.0,1.913,0.025
11/07/2023,09:48:48,1.367,3.0,1.936,0.023
11/07/2023,09:49:49,1.601,4.0,1.961,0.025
11/07/2023,09:50:48,1.665,4.0,1.987,0.026
11/07/2023,09:51:48,1.697,4.0,2.017,0.03
11/07/2023,09:52:49,1.993,5.0,2.046,0.029
11/07/2023,09:53:49,1.776,4.0,2.075,0.029
11/07/2023,09:54:48,1.607,4.0,2.103,0.028
11/07/2023,09:55:48,1.479,3.0,2.128,0.025
11/07/2023,09:56:49,1.556,4.0,2.154,0.026